This is the latest recevied weather packets stored in our database for station/object CE3RCJ-14. If no packets are shown the sender has not sent any weather packets the latest 10 day(s).
| Time | Temp. | Humidity | Pressure | Rain* | Wind** | Luminosity | Snow |
|---|---|---|---|---|---|---|---|
| 1777569781 | 20.56° C | 42% | 1011.6 hPa | - | - | - | - |
| 1777568581 | 20° C | 42% | 1011.7 hPa | - | - | - | - |
| 1777568281 | 20° C | 42% | 1011.8 hPa | - | - | - | - |
| 1777565281 | 19.44° C | 43% | 1012.2 hPa | - | - | - | - |
| 1777563181 | 18.89° C | 44% | 1012.5 hPa | - | - | - | - |
| 1777562581 | 18.89° C | 44% | 1012.5 hPa | - | - | - | - |
| 1777560181 | 17.78° C | 46% | 1012.6 hPa | - | - | - | - |
| 1777558081 | 16.67° C | 47% | 1012.2 hPa | - | - | - | - |
| 1777556282 | 15.56° C | 48% | 1011.8 hPa | - | - | - | - |
| 1777555082 | 15° C | 50% | 1012 hPa | - | - | - | - |
| 1777554181 | 14.44° C | 51% | 1012.2 hPa | - | - | - | - |
| 1777551481 | 13.33° C | 53% | 1012.6 hPa | - | - | - | - |
| 1777549981 | 12.78° C | 53% | 1012.8 hPa | - | - | - | - |
| 1777546381 | 12.78° C | 54% | 1012.7 hPa | - | - | - | - |
| 1777545481 | 12.78° C | 53% | 1012.6 hPa | - | - | - | - |
| 1777544881 | 12.78° C | 54% | 1012.5 hPa | - | - | - | - |
| 1777543381 | 13.33° C | 54% | 1012.5 hPa | - | - | - | - |
| 1777541581 | 13.33° C | 53% | 1012.6 hPa | - | - | - | - |
| 1777539181 | 13.33° C | 53% | 1012.6 hPa | - | - | - | - |
| 1777535581 | 13.89° C | 53% | 1012.8 hPa | - | - | - | - |
| 1777535281 | 13.33° C | 53% | 1012.8 hPa | - | - | - | - |
| 1777534681 | 13.89° C | 53% | 1012.6 hPa | - | - | - | - |
| 1777530481 | 14.44° C | 52% | 1012.6 hPa | - | - | - | - |
| 1777530196 | 14.44° C | 52% | 1012.6 hPa | - | - | - | - |
| 1777529582 | 14.44° C | 52% | 1012.6 hPa | - | - | - | - |
* Rain since midnight (hover to see other rain measurements)
** Current wind speed in m/s (hover to see current wind gust speed)